OSCAR 7 1 7530U 74089B 26093.62468330 -.00000043 00000-0 25018-4 0 9993 2 7530 101.9952 106.0831 0011867 273.4318 205.9727 12.53696961351171 OSCAR 11 (UOSAT 2) 1 14781U 84021B 26094.18329683 .00003206 00000-0 33299-3 0 9997 2 14781 97.7993 60.6249 0009166 72.6649 287.5571 14.90602466246106 OSCAR 19 (LUSAT) 1 20442U 90005G 26094.01731563 .00000253 00000-0 10721-3 0 9997 2 20442 98.8912 113.7598 0012583 66.2377 294.0125 14.34099458891766 EYESAT A 1 22825U 93061C 26094.15972690 .00000199 00000-0 92914-4 0 9996 2 22825 98.6932 161.5826 0007593 323.8735 36.1933 14.30922179696411 ITAMSAT 1 22826U 93061D 26094.16114094 .00000219 00000-0 99637-4 0 9996 2 22826 98.6881 161.4941 0007877 305.2501 54.7944 14.31347129696721 RADIO ROSTO 1 23439U 94085A 26094.23797833 -.00000048 00000-0 -16220-3 0 9998 2 23439 64.8166 62.8093 0153645 17.2967 343.3112 11.27583865287569 JAS 2 1 24278U 96046B 26094.15339581 .00000018 00000-0 56847-4 0 9997 2 24278 98.5336 313.1239 0348902 288.6176 67.7379 13.53270501463150 TECHSAT 1B 1 25397U 98043D 26094.23862254 .00000130 00000-0 76157-4 0 9997 2 25397 99.0053 85.1420 0002317 78.4186 281.7252 14.24413470440804 ISS (ZARYA) 1 25544U 98067A 26094.06925453 .00011847 00000-0 22464-3 0 9997 2 25544 51.6326 306.8840 0006251 269.7954 90.2318 15.48758130560264 PCSAT 1 26931U 01043C 26094.26213189 .00000298 00000-0 14192-3 0 9991 2 26931 67.0497 75.4710 0006828 264.5436 95.4887 14.31926329279867 SAUDISAT 1C 1 27607U 02058C 26094.17794629 .00002448 00000-0 30473-3 0 9991 2 27607 64.5554 357.9396 0075469 275.9713 83.2796 14.82885960253488 CUTE-1 1 27844U 03031E 26093.50286751 .00000567 00000-0 26456-3 0 9990 2 27844 98.6770 102.9944 0010388 47.9217 312.2844 14.24288225181049 CUBESAT XI 4 1 27848U 03031J 26093.94602893 .00000464 00000-0 22289-3 0 9997 2 27848 98.6802 103.2044 0010511 63.1709 297.0543 14.23580366180818 MOZHAYETS 4 1 27939U 03042A 26094.27826098 .00001305 00000-0 20976-3 0 9998 2 27939 98.3454 276.5553 0012104 138.8169 34.0969 14.73328780204664 CUBESAT XI 5 1 28895U 05043F 26093.92840076 .00003380 00000-0 54043-3 0 9993 2 28895 98.2882 248.0380 0015323 82.7657 277.5291 14.72431745 90825 CUTE-1.7+APD 2 1 32785U 08021C 26094.25070638 .00009772 00000-0 62586-3 0 9993 2 32785 97.8239 74.1938 0007116 283.3320 76.7114 15.08746428974048 SEEDS 1 32791U 08021J 26094.23743945 .00032687 00000-0 11161-2 0 9999 2 32791 97.7528 88.7558 0002918 161.1611 198.9737 15.30245025975978 YUBELEINY 1 32953U 08025A 26094.30000257 .00000054 00000-0 31845-3 0 9998 2 32953 82.5054 41.3896 0020393 110.5957 249.7313 12.43177021810516 KKS-1 (KISEKI) 1 33499U 09002H 26094.24127065 .00003091 00000-0 38759-3 0 9995 2 33499 98.1190 15.5270 0008188 160.1323 200.0211 14.82931099925232 SWISSCUBE 1 35932U 09051B 26094.27417133 .00002034 00000-0 41221-3 0 9998 2 35932 98.4078 0.8689 0008098 83.1361 277.0761 14.62335375878358 BEESAT 1 35933U 09051C 26094.17725522 .00001677 00000-0 34725-3 0 9995 2 35933 98.4009 0.5587 0006535 94.9229 265.2718 14.61596567878378 ITUPSAT 1 1 35935U 09051E 26094.24063622 .00001541 00000-0 32888-3 0 9999 2 35935 98.4094 359.8921 0008645 104.9075 255.3082 14.60326440877947 XIWANG-1 (HOPE-1) 1 36122U 09072B 26094.29673168 .00000398 00000-0 11570-2 0 9991 2 36122 100.3961 49.3330 0008041 45.6665 314.5106 13.16438811783287 TISAT 1 1 36799U 10035E 26093.76936484 .00035947 00000-0 12789-2 0 9997 2 36799 98.0674 33.9149 0004140 120.3655 239.7993 15.28881560856320 JUGNU 1 37839U 11058B 26094.05127480 .00000622 00000-0 18525-3 0 9997 2 37839 19.9619 38.8189 0018412 338.0893 108.9138 14.13753227748525 SRMSAT 1 37841U 11058D 26094.28010965 .00000496 00000-0 12556-3 0 9991 2 37841 19.9707 146.8101 0011924 110.2073 318.6980 14.11557455747360 HORYU 2 1 38340U 12025D 26094.27601828 .00007138 00000-0 73418-3 0 9998 2 38340 98.2056 224.2627 0009112 68.9208 291.2982 14.90616627737711 STRAND 1 1 39090U 13009E 26093.97733624 .00000593 00000-0 21376-3 0 9994 2 39090 98.3906 276.0425 0009856 93.1051 267.1264 14.37118190686408 CUBEBUG 1 1 39153U 13018D 26094.17807862 .00007854 00000-0 68949-3 0 9997 2 39153 98.1574 250.8835 0012287 40.0716 320.1408 14.96836177699998 ZACUBE 1 39417U 13066B 26093.87178787 .00009224 00000-0 71955-3 0 9990 2 39417 97.8146 55.8184 0044929 138.2329 222.2338 15.00579357669586 TRITON 1 1 39427U 13066M 26094.27324184 .00004542 00000-0 54705-3 0 9992 2 39427 97.8287 5.7734 0091883 114.7180 246.3631 14.81348080663147 GOMX 1 1 39430U 13066Q 26094.29688122 .00002368 00000-0 36251-3 0 9993 2 39430 97.6537 299.4043 0128153 315.3293 43.7644 14.69201113659067 HUMSAT D 1 39433U 13066T 26068.77891092 .07089284 25853-5 14695-2 0 9996 2 39433 97.4699 82.1645 0007750 211.8767 148.2059 16.31051261671486 CUBEBUG 2 1 39440U 13066AA 26094.29759255 .00007490 00000-0 69927-3 0 9997 2 39440 97.8855 43.0224 0056556 272.6349 86.8397 14.93261828665966 FUNCUBE 1 1 39444U 13066AE 26094.18528427 .00016448 00000-0 10412-2 0 9991 2 39444 97.8232 64.1714 0039072 95.2943 265.2744 15.08416857668503 UWE-3 1 39446U 13066AG 26093.80688810 .00007966 00000-0 69038-3 0 9998 2 39446 97.8634 49.4472 0048895 206.0500 153.8259 14.96445183666457 UNISAT 6 1 40012U 14033C 26094.16414123 .00006162 00000-0 66817-3 0 9997 2 40012 97.7776 248.2403 0044227 313.5116 46.2428 14.87821522635150 DUCHIFAT 1 1 40021U 14033M 26094.17646504 .00103811 00000-0 16253-2 0 9995 2 40021 98.0575 143.6688 0003162 348.3303 11.7874 15.53368895644224 QB50P1 1 40025U 14033R 26093.58092979 .00015793 00000-0 79934-3 0 9991 2 40025 98.0999 99.5565 0010578 116.9605 243.2708 15.17064692641711 OBJECT G 1 40905U 15049G 26094.26288403 .00058466 00000-0 68909-3 0 9995 2 40905 97.4655 134.1679 0007385 124.3302 235.8655 15.61165345584890 LILACSAT 2 1 40908U 15049K 26094.29855134 .00029371 00000-0 54162-3 0 9991 2 40908 97.4752 128.4238 0008434 148.8990 211.2761 15.49051323584306 LQSAT 1 40958U 15057A 26094.28105104 .00001633 00000-0 23966-3 0 9998 2 40958 97.6670 91.3281 0017675 147.7234 212.5062 14.76687180564406 CHUBUSAT 2 1 41338U 16012B 26094.03114742 .00011764 00000-0 52435-3 0 9993 2 41338 30.9975 87.7470 0008514 40.1380 319.9888 15.20125508557126 CHUBUSAT 3 1 41339U 16012C 26094.30960804 .00009190 00000-0 43558-3 0 9998 2 41339 31.0039 93.7915 0008946 32.3667 327.7521 15.17940372556963 PRATHAM 1 41783U 16059A 26093.56387468 .00001473 00000-0 26844-3 0 9993 2 41783 97.8328 93.7088 0032789 96.0954 264.3989 14.67089420508576 ALSAT 1N 1 41789U 16059G 26094.29163497 .00002068 00000-0 35731-3 0 9990 2 41789 97.8027 100.9359 0027398 65.5663 294.8397 14.69182279509152